AAL2036 KDFW-KMIA

Flight info

Callsign AAL2036
Flight time 2h 10m
Altitude 37000
Route MRSSH3 ZALEA HRV Q105 BLVNS Y290 DOWRY FROGZ5
Aircraft B772/H-SDE2E3FGHIJ5LORVWXY/LB1D1

Departure

Time 2026-05-07 15:51
Airport Dallas Fort Worth International Airport (KDFW)

Arrival

Time 2026-05-07 18:02
Airport Miami International Airport (KMIA)
Time Latitude Longitude Altitude Speed Heading
2026-05-07 15:26 32.89894 -97.04573 620 ft 0 kts 90°
2026-05-07 15:39 32.89894 -97.04588 633 ft 4 kts 88°
2026-05-07 15:40 32.89892 -97.04620 632 ft 4 kts 83°
2026-05-07 15:40 32.89888 -97.04652 633 ft 4 kts 78°
2026-05-07 15:40 32.89882 -97.04683 633 ft 4 kts 72°
2026-05-07 15:40 32.89873 -97.04713 631 ft 4 kts 65°
2026-05-07 15:41 32.89860 -97.04741 633 ft 4 kts 52°
2026-05-07 15:41 32.89841 -97.04762 633 ft 4 kts 21°
2026-05-07 15:41 32.89830 -97.04766 633 ft 0 kts
2026-05-07 15:44 32.89837 -97.04765 633 ft 7 kts 12°
2026-05-07 15:44 32.89842 -97.04723 633 ft 6 kts 135°
2026-05-07 15:44 32.89789 -97.04738 628 ft 13 kts 205°
2026-05-07 15:45 32.89691 -97.04767 627 ft 15 kts 182°
2026-05-07 15:45 32.89589 -97.04767 630 ft 15 kts 180°
2026-05-07 15:45 32.89487 -97.04768 627 ft 15 kts 179°
2026-05-07 15:45 32.89382 -97.04766 626 ft 17 kts 179°
2026-05-07 15:46 32.89143 -97.04770 626 ft 17 kts 179°
2026-05-07 15:46 32.89024 -97.04770 626 ft 17 kts 181°
2026-05-07 15:46 32.88904 -97.04771 626 ft 17 kts 179°
2026-05-07 15:47 32.88785 -97.04769 627 ft 17 kts 179°
2026-05-07 15:47 32.88666 -97.04767 628 ft 17 kts 179°
2026-05-07 15:47 32.88546 -97.04773 626 ft 17 kts 185°
2026-05-07 15:47 32.88431 -97.04806 627 ft 17 kts 187°
2026-05-07 15:48 32.88311 -97.04808 627 ft 17 kts 180°
2026-05-07 15:48 32.88192 -97.04808 626 ft 17 kts 180°
2026-05-07 15:48 32.88073 -97.04808 627 ft 17 kts 180°
2026-05-07 15:48 32.87960 -97.04810 626 ft 13 kts 180°
2026-05-07 15:49 32.87908 -97.04842 629 ft 9 kts 248°
2026-05-07 15:49 32.87907 -97.04913 628 ft 9 kts 272°
2026-05-07 15:49 32.87907 -97.04984 628 ft 9 kts 269°
2026-05-07 15:49 32.87908 -97.05055 627 ft 9 kts 278°
2026-05-07 15:50 32.87949 -97.05091 632 ft 8 kts 355°
2026-05-07 15:50 32.87971 -97.05091 627 ft 0 kts
2026-05-07 15:50 32.88083 -97.05089 627 ft 39 kts
2026-05-07 15:51 32.88510 -97.05086 626 ft 87 kts
2026-05-07 15:51 32.89374 -97.05088 637 ft 158 kts
2026-05-07 15:51 32.90525 -97.05082 1375 ft 165 kts
2026-05-07 15:51 32.91679 -97.05126 2367 ft 165 kts 359°
2026-05-07 15:52 32.92884 -97.05191 2854 ft 187 kts 359°
2026-05-07 15:52 32.94284 -97.05273 3052 ft 215 kts 359°
2026-05-07 15:52 32.95856 -97.05283 3274 ft 235 kts 11°
2026-05-07 15:52 32.97319 -97.04349 3794 ft 248 kts 40°
2026-05-07 15:53 32.97943 -97.03660 3998 ft 253 kts 40°
2026-05-07 15:53 32.99271 -97.02321 4643 ft 261 kts 37°
2026-05-07 15:53 33.00670 -97.00972 5322 ft 264 kts 41°
2026-05-07 15:54 33.01666 -96.99066 5860 ft 283 kts 72°
2026-05-07 15:54 33.01823 -96.96705 6492 ft 290 kts 94°
2026-05-07 15:54 33.01594 -96.94261 6995 ft 301 kts 96°
2026-05-07 15:54 33.01359 -96.91771 7741 ft 304 kts 96°
2026-05-07 15:55 33.01147 -96.89252 8434 ft 308 kts 95°
2026-05-07 15:55 33.00897 -96.86708 9014 ft 310 kts 104°
2026-05-07 15:55 32.99983 -96.84376 9425 ft 312 kts 128°
2026-05-07 15:55 32.98686 -96.82260 10013 ft 319 kts 129°
2026-05-07 15:56 32.98454 -96.81879 10127 ft 319 kts 129°
2026-05-07 15:56 32.97547 -96.80376 10389 ft 331 kts 129°
2026-05-07 15:56 32.96176 -96.78092 10794 ft 345 kts 129°
2026-05-07 15:56 32.94764 -96.75721 11396 ft 356 kts 129°
2026-05-07 15:57 32.93320 -96.73286 12139 ft 363 kts 129°
2026-05-07 15:57 32.91855 -96.70808 13047 ft 369 kts 129°
2026-05-07 15:57 32.90367 -96.68287 13958 ft 376 kts 130°
2026-05-07 15:57 32.88847 -96.65713 14728 ft 384 kts 130°
2026-05-07 15:58 32.87302 -96.63097 15596 ft 389 kts 130°
2026-05-07 15:58 32.85734 -96.60443 16470 ft 395 kts 130°
2026-05-07 15:58 32.84144 -96.57751 17315 ft 401 kts 130°
2026-05-07 15:58 32.82530 -96.55023 18151 ft 407 kts 130°
2026-05-07 15:59 32.80887 -96.52247 18900 ft 413 kts 131°
2026-05-07 15:59 32.79224 -96.49438 19648 ft 417 kts 131°
2026-05-07 15:59 32.77546 -96.46604 20385 ft 422 kts 131°
2026-05-07 15:59 32.75848 -96.43738 21096 ft 427 kts 131°
2026-05-07 16:00 32.74127 -96.40840 21819 ft 432 kts 132°
2026-05-07 16:00 32.72384 -96.37908 22503 ft 436 kts 131°
2026-05-07 16:00 32.70818 -96.34784 23200 ft 448 kts 120°
2026-05-07 16:00 32.69723 -96.31272 23880 ft 460 kts 109°
2026-05-07 16:01 32.69127 -96.27512 24448 ft 468 kts 98°
2026-05-07 16:01 32.68874 -96.23638 25001 ft 474 kts 96°
2026-05-07 16:01 32.68668 -96.19708 25553 ft 480 kts 96°
2026-05-07 16:01 32.68458 -96.15733 26131 ft 485 kts 96°
2026-05-07 16:02 32.68227 -96.11724 26708 ft 490 kts 97°
2026-05-07 16:02 32.67973 -96.07675 27286 ft 494 kts 98°
2026-05-07 16:02 32.67701 -96.03581 27792 ft 501 kts 98°
2026-05-07 16:02 32.67418 -95.99432 28314 ft 507 kts 98°
2026-05-07 16:03 32.67130 -95.95245 28872 ft 511 kts 98°
2026-05-07 16:03 32.66841 -95.91018 29430 ft 516 kts 99°
2026-05-07 16:03 32.66549 -95.86761 29968 ft 521 kts 99°
2026-05-07 16:03 32.66252 -95.82457 30421 ft 525 kts 99°
2026-05-07 16:04 32.65949 -95.78122 30831 ft 530 kts 99°
2026-05-07 16:04 32.65643 -95.73754 31264 ft 533 kts 99°
2026-05-07 16:04 32.65333 -95.69354 31681 ft 537 kts 99°
2026-05-07 16:04 32.65019 -95.64924 32050 ft 541 kts 100°
2026-05-07 16:05 32.64706 -95.60519 32401 ft 545 kts 100°
2026-05-07 16:05 32.64385 -95.56023 32792 ft 548 kts 100°
2026-05-07 16:05 32.64063 -95.51511 33183 ft 551 kts 100°
2026-05-07 16:05 32.63736 -95.46965 33570 ft 554 kts 101°
2026-05-07 16:06 32.63406 -95.42398 33946 ft 557 kts 101°
2026-05-07 16:06 32.63072 -95.37806 34282 ft 560 kts 101°
2026-05-07 16:06 32.62735 -95.33195 34584 ft 563 kts 101°
2026-05-07 16:06 32.62395 -95.28558 34918 ft 565 kts 101°
2026-05-07 16:07 32.62052 -95.23906 35250 ft 567 kts 101°
2026-05-07 16:07 32.61706 -95.19235 35559 ft 570 kts 101°
2026-05-07 16:07 32.61357 -95.14552 35892 ft 571 kts 101°
2026-05-07 16:07 32.61006 -95.09863 36267 ft 570 kts 101°
2026-05-07 16:08 32.60655 -95.05181 36686 ft 569 kts 101°
2026-05-07 16:08 32.60302 -95.00510 37078 ft 569 kts 101°
2026-05-07 16:08 32.59945 -94.95826 37212 ft 573 kts 101°
2026-05-07 16:09 32.59214 -94.86314 37487 ft 582 kts 101°
2026-05-07 16:09 32.58822 -94.81550 37826 ft 579 kts 103°
2026-05-07 16:09 32.58179 -94.76864 38178 ft 572 kts 109°
2026-05-07 16:09 32.57230 -94.72316 38510 ft 564 kts 116°
2026-05-07 16:10 32.55986 -94.67929 38787 ft 561 kts 118°
2026-05-07 16:10 32.54702 -94.63560 39015 ft 561 kts 118°
2026-05-07 16:10 32.53419 -94.59190 39221 ft 562 kts 117°
2026-05-07 16:10 32.52168 -94.54861 39857 ft 551 kts 117°
2026-05-07 16:11 32.50938 -94.50565 40103 ft 552 kts 117°
2026-05-07 16:11 32.48463 -94.41884 40271 ft 559 kts 116°
2026-05-07 16:11 32.47225 -94.37524 40513 ft 558 kts 116°
2026-05-07 16:12 32.45991 -94.33174 40776 ft 557 kts 116°
2026-05-07 16:12 32.44757 -94.28835 41001 ft 556 kts 116°
2026-05-07 16:12 32.43517 -94.24488 41076 ft 558 kts 116°
2026-05-07 16:13 32.41443 -94.17248 41143 ft 560 kts 116°
2026-05-07 16:13 32.38940 -94.08526 41143 ft 558 kts 116°
2026-05-07 16:14 32.36443 -93.99844 41150 ft 557 kts 116°
2026-05-07 16:14 32.33944 -93.91189 41151 ft 556 kts 116°
2026-05-07 16:15 32.31441 -93.82546 41154 ft 555 kts 116°
2026-05-07 16:15 32.28929 -93.73901 41116 ft 557 kts 116°
2026-05-07 16:16 32.26408 -93.65241 41150 ft 558 kts 116°
2026-05-07 16:16 32.23878 -93.56573 41152 ft 559 kts 116°
2026-05-07 16:17 32.20887 -93.48199 41149 ft 547 kts 127°
2026-05-07 16:17 32.16912 -93.40743 41144 ft 533 kts 138°
2026-05-07 16:18 32.12363 -93.33868 41143 ft 531 kts 139°
2026-05-07 16:18 32.07805 -93.27005 41142 ft 532 kts 138°
2026-05-07 16:19 32.03270 -93.20111 41093 ft 532 kts 138°
2026-05-07 16:19 31.98760 -93.13223 41137 ft 530 kts 137°
2026-05-07 16:20 31.94261 -93.06359 41136 ft 529 kts 137°
2026-05-07 16:20 31.89759 -92.99511 41129 ft 529 kts 137°
2026-05-07 16:21 31.85254 -92.92675 41134 ft 529 kts 137°
2026-05-07 16:21 31.80746 -92.85847 41129 ft 529 kts 138°
2026-05-07 16:22 31.76232 -92.79021 41075 ft 529 kts 137°
2026-05-07 16:22 31.71726 -92.72216 41113 ft 527 kts 137°
2026-05-07 16:23 31.67225 -92.65431 41091 ft 526 kts 137°
2026-05-07 16:23 31.62736 -92.58676 41109 ft 524 kts 138°
2026-05-07 16:24 31.58248 -92.51939 41100 ft 524 kts 138°
2026-05-07 16:24 31.53764 -92.45217 41104 ft 523 kts 138°
2026-05-07 16:25 31.49281 -92.38509 41074 ft 522 kts 138°
2026-05-07 16:25 31.44807 -92.31824 41094 ft 521 kts 138°
2026-05-07 16:26 31.40337 -92.25158 41083 ft 520 kts 138°
2026-05-07 16:26 31.35870 -92.18508 41095 ft 519 kts 138°
2026-05-07 16:27 31.31400 -92.11867 41101 ft 520 kts 138°
2026-05-07 16:27 31.26923 -92.05225 41105 ft 520 kts 138°
2026-05-07 16:28 31.22440 -91.98585 41066 ft 521 kts 137°
2026-05-07 16:28 31.17957 -91.91956 41103 ft 520 kts 137°
2026-05-07 16:29 31.13477 -91.85341 41067 ft 519 kts 137°
2026-05-07 16:29 31.09024 -91.78780 41076 ft 519 kts 137°
2026-05-07 16:30 31.04544 -91.72190 41076 ft 518 kts 137°
2026-05-07 16:30 31.00061 -91.65607 41077 ft 518 kts 137°
2026-05-07 16:31 30.95573 -91.59027 41071 ft 518 kts 137°
2026-05-07 16:31 30.91091 -91.52465 41046 ft 517 kts 137°
2026-05-07 16:32 30.86619 -91.45929 41050 ft 515 kts 137°
2026-05-07 16:32 30.82155 -91.39417 41052 ft 514 kts 137°
2026-05-07 16:33 30.77693 -91.32927 41065 ft 513 kts 137°
2026-05-07 16:33 30.73228 -91.26447 41054 ft 513 kts 137°
2026-05-07 16:34 30.68771 -91.19964 41056 ft 514 kts 137°
2026-05-07 16:34 30.64307 -91.13488 41040 ft 514 kts 137°
2026-05-07 16:35 30.59833 -91.07017 41066 ft 514 kts 137°
2026-05-07 16:35 30.55354 -91.00548 41056 ft 514 kts 137°
2026-05-07 16:36 30.50871 -90.94083 41050 ft 514 kts 137°
2026-05-07 16:36 30.46383 -90.87622 41042 ft 514 kts 137°
2026-05-07 16:37 30.41894 -90.81169 41044 ft 514 kts 137°
2026-05-07 16:37 30.37404 -90.74726 41032 ft 514 kts 137°
2026-05-07 16:38 30.32942 -90.68332 41051 ft 514 kts 137°
2026-05-07 16:38 30.28446 -90.61901 41053 ft 514 kts 137°
2026-05-07 16:39 30.23944 -90.55471 41048 ft 514 kts 137°
2026-05-07 16:39 30.19437 -90.49045 41045 ft 514 kts 137°
2026-05-07 16:40 30.14925 -90.42621 41040 ft 515 kts 137°
2026-05-07 16:40 30.10411 -90.36206 41018 ft 514 kts 136°
2026-05-07 16:41 30.05900 -90.29804 41047 ft 514 kts 136°
2026-05-07 16:41 30.01383 -90.23403 41046 ft 514 kts 136°
2026-05-07 16:42 29.96863 -90.17010 41047 ft 514 kts 136°
2026-05-07 16:42 29.92338 -90.10618 41033 ft 514 kts 136°
2026-05-07 16:43 29.87814 -90.04236 41040 ft 514 kts 136°
2026-05-07 16:43 29.83273 -89.97870 41002 ft 514 kts 137°
2026-05-07 16:44 29.78697 -89.91641 41017 ft 513 kts 137°
2026-05-07 16:44 29.74074 -89.85370 41018 ft 514 kts 137°
2026-05-07 16:45 29.69448 -89.79074 41024 ft 516 kts 137°
2026-05-07 16:45 29.64803 -89.72777 41006 ft 517 kts 137°
2026-05-07 16:46 29.60159 -89.66484 41017 ft 516 kts 137°
2026-05-07 16:46 29.55515 -89.60192 41018 ft 516 kts 137°
2026-05-07 16:47 29.50879 -89.53909 41024 ft 515 kts 137°
2026-05-07 16:47 29.46249 -89.47644 41022 ft 515 kts 137°
2026-05-07 16:48 29.41611 -89.41391 41022 ft 514 kts 137°
2026-05-07 16:48 29.36972 -89.35148 41029 ft 514 kts 137°
2026-05-07 16:49 29.32329 -89.28909 41030 ft 514 kts 137°
2026-05-07 16:49 29.27687 -89.22678 41027 ft 514 kts 137°
2026-05-07 16:50 29.23040 -89.16451 41016 ft 514 kts 137°
2026-05-07 16:50 29.18397 -89.10238 41035 ft 514 kts 137°
2026-05-07 16:51 29.13744 -89.04033 41035 ft 514 kts 137°
2026-05-07 16:51 29.09085 -88.97819 41041 ft 515 kts 137°
2026-05-07 16:52 29.04456 -88.91647 41058 ft 515 kts 137°
2026-05-07 16:52 28.99795 -88.85435 41044 ft 515 kts 137°
2026-05-07 16:53 28.95120 -88.79236 41012 ft 515 kts 137°
2026-05-07 16:53 28.90449 -88.73049 41038 ft 514 kts 136°
2026-05-07 16:54 28.85800 -88.66853 41042 ft 514 kts 136°
2026-05-07 16:54 28.81173 -88.60628 41050 ft 514 kts 136°
2026-05-07 16:55 28.76540 -88.54411 41049 ft 514 kts 136°
2026-05-07 16:55 28.71902 -88.48206 41050 ft 514 kts 136°
2026-05-07 16:56 28.67259 -88.42005 41048 ft 514 kts 136°
2026-05-07 16:56 28.60297 -88.32719 41045 ft 513 kts 136°
2026-05-07 16:57 28.55657 -88.26542 41052 ft 513 kts 136°
2026-05-07 16:57 28.51020 -88.20378 41053 ft 513 kts 136°
2026-05-07 16:58 28.46385 -88.14223 41055 ft 512 kts 136°
2026-05-07 16:58 28.41755 -88.08067 41048 ft 513 kts 134°
2026-05-07 16:59 28.39029 -88.03586 41056 ft 519 kts 124°
2026-05-07 16:59 28.37832 -88.01086 41056 ft 521 kts 120°
2026-05-07 17:00 28.35183 -87.93399 41042 ft 525 kts 110°
2026-05-07 17:00 28.33353 -87.86836 41054 ft 524 kts 110°
2026-05-07 17:01 28.30785 -87.77673 41059 ft 524 kts 110°
2026-05-07 17:01 28.28524 -87.69820 41055 ft 524 kts 110°
2026-05-07 17:02 28.26610 -87.63248 41056 ft 523 kts 110°
2026-05-07 17:02 28.24326 -87.55422 41053 ft 523 kts 110°
2026-05-07 17:03 28.22057 -87.47656 41059 ft 522 kts 110°
2026-05-07 17:03 28.19771 -87.39841 41056 ft 522 kts 110°
2026-05-07 17:04 28.17482 -87.32036 41056 ft 522 kts 110°
2026-05-07 17:04 28.15189 -87.24238 41056 ft 522 kts 110°
2026-05-07 17:05 28.14920 -87.23322 41063 ft 522 kts 110°
2026-05-07 17:05 28.13402 -87.18171 41053 ft 522 kts 110°
2026-05-07 17:06 28.11102 -87.10381 41060 ft 522 kts 110°
2026-05-07 17:06 28.08798 -87.02592 41061 ft 522 kts 110°
2026-05-07 17:07 28.06489 -86.94807 41056 ft 522 kts 110°
2026-05-07 17:07 28.04176 -86.87026 41062 ft 521 kts 110°
2026-05-07 17:08 28.01860 -86.79248 41061 ft 521 kts 110°
2026-05-07 17:08 27.99563 -86.71486 41043 ft 520 kts 110°
2026-05-07 17:09 27.97324 -86.63723 41059 ft 519 kts 110°
2026-05-07 17:09 27.95091 -86.55970 41059 ft 518 kts 109°
2026-05-07 17:10 27.92848 -86.48234 41059 ft 517 kts 109°
2026-05-07 17:10 27.90598 -86.40508 41060 ft 517 kts 110°
2026-05-07 17:11 27.88343 -86.32786 41061 ft 517 kts 110°
2026-05-07 17:11 27.86084 -86.25062 41060 ft 518 kts 110°
2026-05-07 17:12 27.83819 -86.17340 41064 ft 518 kts 110°
2026-05-07 17:12 27.81564 -86.09667 41058 ft 518 kts 110°
2026-05-07 17:13 27.79289 -86.01949 41060 ft 518 kts 110°
2026-05-07 17:13 27.77011 -85.94232 41058 ft 518 kts 110°
2026-05-07 17:14 27.74728 -85.86514 41063 ft 518 kts 110°
2026-05-07 17:14 27.72441 -85.78803 41062 ft 518 kts 110°
2026-05-07 17:15 27.70149 -85.71095 41062 ft 518 kts 110°
2026-05-07 17:15 27.67853 -85.63390 41064 ft 518 kts 110°
2026-05-07 17:16 27.65552 -85.55684 41066 ft 518 kts 110°
2026-05-07 17:16 27.63250 -85.47992 41068 ft 518 kts 110°
2026-05-07 17:17 27.60943 -85.40295 41065 ft 518 kts 110°
2026-05-07 17:17 27.58782 -85.32552 41070 ft 518 kts 103°
2026-05-07 17:18 27.57429 -85.24571 41069 ft 518 kts 101°
2026-05-07 17:18 27.56096 -85.16594 41069 ft 518 kts 102°
2026-05-07 17:19 27.54694 -85.08628 41071 ft 518 kts 102°
2026-05-07 17:19 27.53291 -85.00658 41073 ft 518 kts 102°
2026-05-07 17:20 27.51890 -84.92698 41064 ft 518 kts 102°
2026-05-07 17:20 27.50488 -84.84746 41063 ft 517 kts 102°
2026-05-07 17:21 27.49080 -84.76800 41073 ft 517 kts 102°
2026-05-07 17:21 27.47667 -84.68862 41076 ft 517 kts 102°
2026-05-07 17:22 27.46251 -84.60931 41073 ft 516 kts 102°
2026-05-07 17:22 27.44833 -84.53011 41069 ft 516 kts 102°
2026-05-07 17:23 27.43414 -84.45105 41070 ft 515 kts 102°
2026-05-07 17:23 27.41991 -84.37210 41070 ft 515 kts 102°
2026-05-07 17:24 27.40561 -84.29317 41072 ft 515 kts 102°
2026-05-07 17:24 27.39128 -84.21430 41074 ft 515 kts 102°
2026-05-07 17:25 27.37691 -84.13541 41072 ft 515 kts 102°
2026-05-07 17:25 27.36250 -84.05659 41076 ft 515 kts 102°
2026-05-07 17:26 27.34803 -83.97770 41076 ft 515 kts 102°
2026-05-07 17:26 27.33353 -83.89885 41071 ft 514 kts 102°
2026-05-07 17:27 27.31900 -83.82016 41081 ft 514 kts 102°
2026-05-07 17:27 27.30444 -83.74156 41078 ft 513 kts 102°
2026-05-07 17:28 27.28985 -83.66301 41074 ft 513 kts 102°
2026-05-07 17:28 27.27523 -83.58457 41080 ft 513 kts 102°
2026-05-07 17:29 27.26066 -83.50669 41078 ft 513 kts 102°
2026-05-07 17:29 27.24596 -83.42833 41079 ft 513 kts 102°
2026-05-07 17:30 27.23121 -83.34993 41081 ft 512 kts 102°
2026-05-07 17:30 27.21641 -83.27157 41081 ft 513 kts 102°
2026-05-07 17:31 27.20158 -83.19328 41082 ft 513 kts 102°
2026-05-07 17:31 27.18671 -83.11495 41078 ft 513 kts 102°
2026-05-07 17:32 27.17923 -83.07569 40809 ft 516 kts 102°
2026-05-07 17:32 27.17161 -83.03578 40381 ft 515 kts 102°
2026-05-07 17:32 27.16422 -82.99715 39954 ft 511 kts 102°
2026-05-07 17:32 27.15919 -82.97088 39656 ft 508 kts 102°
2026-05-07 17:33 27.14930 -82.91927 39104 ft 503 kts 102°
2026-05-07 17:33 27.14196 -82.88101 38677 ft 499 kts 102°
2026-05-07 17:33 27.13411 -82.84376 38199 ft 496 kts 108°
2026-05-07 17:33 27.11991 -82.80896 37670 ft 488 kts 123°
2026-05-07 17:34 27.10176 -82.77701 37257 ft 483 kts 125°
2026-05-07 17:34 27.08342 -82.74560 36808 ft 480 kts 125°
2026-05-07 17:34 27.06536 -82.71432 36395 ft 476 kts 125°
2026-05-07 17:34 27.04772 -82.68311 36080 ft 470 kts 124°
2026-05-07 17:35 27.03034 -82.65185 35868 ft 480 kts 124°
2026-05-07 17:35 27.01249 -82.61949 35669 ft 495 kts 124°
2026-05-07 17:35 26.99423 -82.58626 35460 ft 507 kts 123°
2026-05-07 17:35 26.97548 -82.55212 35211 ft 520 kts 123°
2026-05-07 17:36 26.95649 -82.51757 34826 ft 521 kts 123°
2026-05-07 17:36 26.93748 -82.48308 34414 ft 519 kts 124°
2026-05-07 17:36 26.91829 -82.44900 33988 ft 514 kts 127°
2026-05-07 17:36 26.89526 -82.41900 33503 ft 504 kts 141°
2026-05-07 17:37 26.86871 -82.39378 33062 ft 498 kts 144°
2026-05-07 17:37 26.84178 -82.36952 32615 ft 495 kts 145°
2026-05-07 17:37 26.81504 -82.34535 32168 ft 493 kts 144°
2026-05-07 17:37 26.78866 -82.32101 31739 ft 491 kts 143°
2026-05-07 17:38 26.76262 -82.29647 31314 ft 488 kts 143°
2026-05-07 17:38 26.73685 -82.27186 30892 ft 485 kts 143°
2026-05-07 17:38 26.71131 -82.24734 30474 ft 483 kts 143°
2026-05-07 17:38 26.68591 -82.22297 30055 ft 480 kts 143°
2026-05-07 17:39 26.66065 -82.19876 29561 ft 477 kts 143°
2026-05-07 17:39 26.63557 -82.17477 29080 ft 473 kts 142°
2026-05-07 17:39 26.61069 -82.15101 28604 ft 468 kts 142°
2026-05-07 17:39 26.58603 -82.12748 28155 ft 464 kts 142°
2026-05-07 17:40 26.56157 -82.10415 27703 ft 460 kts 142°
2026-05-07 17:40 26.53733 -82.08105 27259 ft 456 kts 142°
2026-05-07 17:40 26.51346 -82.05799 26826 ft 452 kts 141°
2026-05-07 17:40 26.49012 -82.03460 26392 ft 449 kts 141°
2026-05-07 17:41 26.46710 -82.01121 25988 ft 445 kts 141°
2026-05-07 17:41 26.44432 -81.98802 25595 ft 442 kts 141°
2026-05-07 17:41 26.42167 -81.96504 25219 ft 438 kts 141°
2026-05-07 17:41 26.39916 -81.94230 24849 ft 435 kts 141°
2026-05-07 17:42 26.37674 -81.91974 24475 ft 433 kts 141°
2026-05-07 17:42 26.35443 -81.89732 24106 ft 431 kts 141°
2026-05-07 17:42 26.33219 -81.87499 23733 ft 429 kts 141°
2026-05-07 17:42 26.31008 -81.85281 23309 ft 427 kts 140°
2026-05-07 17:43 26.28804 -81.83069 22872 ft 425 kts 140°
2026-05-07 17:43 26.26611 -81.80871 22448 ft 423 kts 140°
2026-05-07 17:43 26.24448 -81.78672 22016 ft 418 kts 137°
2026-05-07 17:43 26.22697 -81.76098 21553 ft 416 kts 118°
2026-05-07 17:44 26.21495 -81.73195 21176 ft 412 kts 115°
2026-05-07 17:44 26.20307 -81.70294 20771 ft 412 kts 115°
2026-05-07 17:44 26.19096 -81.67407 20371 ft 411 kts 116°
2026-05-07 17:44 26.17870 -81.64538 19959 ft 409 kts 116°
2026-05-07 17:45 26.16642 -81.61696 19569 ft 407 kts 116°
2026-05-07 17:45 26.15413 -81.58869 19191 ft 403 kts 116°
2026-05-07 17:45 26.14608 -81.57021 18936 ft 399 kts 116°
2026-05-07 17:45 26.12998 -81.53331 18419 ft 393 kts 116°
2026-05-07 17:46 26.12210 -81.51526 18142 ft 390 kts 115°
2026-05-07 17:46 26.11033 -81.48828 17681 ft 386 kts 115°
2026-05-07 17:46 26.09868 -81.46158 17233 ft 382 kts 116°
2026-05-07 17:46 26.08712 -81.43511 16779 ft 379 kts 116°
2026-05-07 17:47 26.07194 -81.40042 16209 ft 375 kts 116°
2026-05-07 17:47 26.06427 -81.38287 15905 ft 372 kts 116°
2026-05-07 17:47 26.05301 -81.35703 15485 ft 370 kts 116°
2026-05-07 17:47 26.04185 -81.33141 15069 ft 367 kts 116°
2026-05-07 17:48 26.03077 -81.30597 14653 ft 364 kts 116°
2026-05-07 17:48 26.01976 -81.28071 14245 ft 362 kts 116°
2026-05-07 17:48 26.00882 -81.25564 13825 ft 359 kts 115°
2026-05-07 17:48 25.99796 -81.23075 13382 ft 357 kts 116°
2026-05-07 17:49 25.98717 -81.20604 12923 ft 354 kts 115°
2026-05-07 17:49 25.97647 -81.18154 12483 ft 350 kts 115°
2026-05-07 17:49 25.96587 -81.15731 12053 ft 347 kts 115°
2026-05-07 17:49 25.95539 -81.13335 11621 ft 343 kts 116°
2026-05-07 17:50 25.94499 -81.10962 11214 ft 339 kts 115°
2026-05-07 17:50 25.93474 -81.08620 10845 ft 335 kts 116°
2026-05-07 17:50 25.92468 -81.06327 10468 ft 321 kts 116°
2026-05-07 17:50 25.91524 -81.04172 10083 ft 300 kts 116°
2026-05-07 17:51 25.90670 -81.02122 9655 ft 286 kts 113°
2026-05-07 17:51 25.89909 -81.00115 9249 ft 279 kts 112°
2026-05-07 17:51 25.89159 -80.98120 8993 ft 283 kts 112°
2026-05-07 17:51 25.88391 -80.96088 8808 ft 286 kts 113°
2026-05-07 17:52 25.87617 -80.94059 8645 ft 284 kts 113°
2026-05-07 17:52 25.86848 -80.92047 8460 ft 282 kts 113°
2026-05-07 17:52 25.86081 -80.90049 8300 ft 280 kts 113°
2026-05-07 17:52 25.85319 -80.88065 8129 ft 279 kts 113°
2026-05-07 17:53 25.84571 -80.86119 8070 ft 277 kts 113°
2026-05-07 17:53 25.83801 -80.84118 8023 ft 281 kts 113°
2026-05-07 17:53 25.83041 -80.82142 7860 ft 282 kts 113°
2026-05-07 17:53 25.82267 -80.80132 7594 ft 278 kts 113°
2026-05-07 17:54 25.81522 -80.78198 7314 ft 275 kts 113°
2026-05-07 17:54 25.80772 -80.76251 7037 ft 273 kts 113°
2026-05-07 17:54 25.80029 -80.74325 6746 ft 270 kts 113°
2026-05-07 17:54 25.79292 -80.72413 6468 ft 269 kts 113°
2026-05-07 17:55 25.78598 -80.70506 6135 ft 262 kts 105°
2026-05-07 17:55 25.78443 -80.68482 5816 ft 267 kts 86°
2026-05-07 17:55 25.78575 -80.66412 5521 ft 270 kts 87°
2026-05-07 17:55 25.78662 -80.64327 5207 ft 270 kts 88°
2026-05-07 17:56 25.78741 -80.62270 5069 ft 261 kts 88°
2026-05-07 17:56 25.78822 -80.60270 5021 ft 262 kts 88°
2026-05-07 17:56 25.78906 -80.58232 4718 ft 266 kts 88°
2026-05-07 17:56 25.78991 -80.56193 4393 ft 264 kts 88°
2026-05-07 17:57 25.79074 -80.54202 4098 ft 250 kts 88°
2026-05-07 17:57 25.79126 -80.52948 3857 ft 243 kts 87°
2026-05-07 17:57 25.79230 -80.50457 3453 ft 241 kts 88°
2026-05-07 17:57 25.79307 -80.48607 3141 ft 239 kts 88°
2026-05-07 17:58 25.79382 -80.46774 2819 ft 236 kts 88°
2026-05-07 17:58 25.79457 -80.44979 2521 ft 228 kts 88°
2026-05-07 17:58 25.79528 -80.43285 2241 ft 211 kts 88°
2026-05-07 17:58 25.79591 -80.41732 1997 ft 193 kts 88°
2026-05-07 17:59 25.79648 -80.40292 1751 ft 181 kts 89°
2026-05-07 17:59 25.79707 -80.38946 1538 ft 169 kts 89°
2026-05-07 17:59 25.79760 -80.37696 1319 ft 154 kts 89°
2026-05-07 17:59 25.79806 -80.36574 1110 ft 139 kts 89°
2026-05-07 18:00 25.79843 -80.35525 950 ft 136 kts 89°
2026-05-07 18:00 25.79887 -80.34467 791 ft 139 kts 89°
2026-05-07 18:00 25.79951 -80.33395 653 ft 140 kts 90°
2026-05-07 18:00 25.79991 -80.32317 464 ft 141 kts 91°
2026-05-07 18:01 25.80028 -80.31202 289 ft 147 kts 90°
2026-05-07 18:01 25.80076 -80.30091 54 ft 142 kts 91°
2026-05-07 18:01 25.80116 -80.29046 26 ft 123 kts 87°
2026-05-07 18:01 25.80146 -80.28302 19 ft 69 kts 88°
2026-05-07 18:02 25.80169 -80.27679 19 ft 16 kts 92°
2026-05-07 18:02 25.80162 -80.27616 24 ft 4 kts 102°
2026-05-07 18:02 25.80130 -80.27545 26 ft 8 kts 129°
2026-05-07 18:03 25.80083 -80.27503 24 ft 12 kts 154°
2026-05-07 18:03 25.80016 -80.27500 23 ft 10 kts 198°
2026-05-07 18:03 25.79948 -80.27532 25 ft 11 kts 194°
2026-05-07 18:03 25.79899 -80.27589 23 ft 11 kts 256°
2026-05-07 18:04 25.79892 -80.27672 23 ft 11 kts 267°
2026-05-07 18:04 25.79888 -80.27773 19 ft 15 kts 266°
2026-05-07 18:04 25.79883 -80.27880 19 ft 13 kts 267°
2026-05-07 18:04 25.79877 -80.27958 19 ft 7 kts 256°
2026-05-07 18:05 25.79845 -80.27997 20 ft 8 kts 213°
2026-05-07 18:05 25.79797 -80.28032 20 ft 6 kts 213°
2026-05-07 18:05 25.79779 -80.28046 21 ft 0 kts 214°